FW9423 Weather Reports


Display with metric or nautical units.
time (UTC)temp
F
wind
direction
speed
MPH
gust
MPH
rain 1hr
in
rain 24hr
in
rain mn
in
humidity
%
barometer
mb
20260504214551 50 0 0.0 3.0 0.00 0.00 0.00 81 1026.5
20260504214040 51 0 1.0 3.0 0.00 0.00 0.00 81 1026.5
20260504213543 51 360 1.0 3.0 0.00 0.00 0.00 80 1026.4
20260504213104 51 360 2.0 4.0 0.00 0.00 0.00 80 1026.3
20260504212544 51 360 1.0 4.0 0.00 0.00 0.00 80 1026.4
20260504212045 51 360 1.0 5.0 0.00 0.00 0.00 80 1026.4
20260504211600 52 360 2.0 5.0 0.00 0.00 0.00 80 1026.4
20260504211044 52 360 3.0 5.0 0.00 0.00 0.00 79 1026.3
20260504210544 52 360 1.0 5.0 0.00 0.00 0.00 79 1026.3
20260504210125 52 360 2.0 5.0 0.00 0.00 0.00 79 1026.4
20260504205542 53 360 2.0 5.0 0.00 0.00 0.00 79 1026.3
20260504205042 53 360 1.0 4.0 0.00 0.00 0.00 79 1026.2
20260504204602 52 0 0.0 2.0 0.00 0.00 0.00 79 1026.2
20260504204043 52 0 0.0 2.0 0.00 0.00 0.00 79 1026.3
20260504203545 52 0 0.0 2.0 0.00 0.00 0.00 79 1026.2
20260504203058 52 0 0.0 0.0 0.00 0.00 0.00 78 1026.2
20260504202540 52 0 0.0 0.0 0.00 0.00 0.00 78 1026.2
20260504202045 53 0 0.0 3.0 0.00 0.00 0.00 78 1026.2
20260504201557 53 0 0.0 4.0 0.00 0.00 0.00 78 1026.0
20260504201039 53 360 2.0 4.0 0.00 0.00 0.00 77 1025.9
20260504200539 54 360 2.0 5.0 0.00 0.00 0.00 77 1026.0
20260504200124 54 360 2.0 5.0 0.00 0.00 0.00 77 1025.9
20260504195541 54 360 2.0 4.0 0.00 0.00 0.00 77 1026.0
20260504195041 54 360 2.0 4.0 0.00 0.00 0.00 77 1025.8
20260504194556 54 360 2.0 4.0 0.00 0.00 0.00 77 1025.9
20260504194041 54 360 2.0 4.0 0.00 0.00 0.00 77 1025.9
20260504193541 54 360 2.0 4.0 0.00 0.00 0.00 77 1025.8
20260504193103 53 0 1.0 4.0 0.00 0.00 0.00 77 1025.8
20260504192540 53 360 0.0 4.0 0.00 0.00 0.00 76 1025.8
20260504192045 53 0 0.0 0.0 0.00 0.00 0.00 76 1025.8
20260504191624 54 0 0.0 3.0 0.00 0.00 0.00 76 1025.8
20260504191041 54 0 0.0 3.0 0.00 0.00 0.00 75 1025.8
20260504190543 54 0 1.0 3.0 0.00 0.00 0.00 75 1025.8
20260504190059 54 360 1.0 3.0 0.00 0.00 0.00 75 1025.8
20260504185540 54 360 1.0 3.0 0.00 0.00 0.00 74 1025.8
20260504185039 55 360 1.0 3.0 0.00 0.00 0.00 73 1025.7
20260504184550 55 0 1.0 3.0 0.00 0.00 0.00 73 1025.7
20260504184042 55 360 1.0 4.0 0.00 0.00 0.00 73 1025.8
20260504183541 55 360 2.0 4.0 0.00 0.00 0.00 73 1025.7
20260504183058 55 360 2.0 4.0 0.00 0.00 0.00 72 1025.7
20260504182539 55 360 2.0 3.0 0.00 0.00 0.00 72 1025.6
20260504182041 55 360 2.0 3.0 0.00 0.00 0.00 72 1025.6
20260504181552 55 360 1.0 3.0 0.00 0.00 0.00 71 1025.7
20260504181041 55 360 1.0 2.0 0.00 0.00 0.00 70 1025.7
20260504180541 55 360 1.0 2.0 0.00 0.00 0.00 70 1025.8
20260504180122 56 360 0.0 3.0 0.00 0.00 0.00 70 1025.7
20260504175544 56 0 1.0 4.0 0.00 0.00 0.00 69 1025.8
20260504175041 56 360 2.0 4.0 0.00 0.00 0.00 69 1025.6
20260504174552 56 360 1.0 3.0 0.00 0.00 0.00 69 1025.6
20260504174043 56 360 1.0 3.0 0.00 0.00 0.00 69 1025.6
20260504173540 57 360 1.0 3.0 0.00 0.00 0.00 68 1025.6
20260504173054 57 360 0.0 3.0 0.00 0.00 0.00 68 1025.6
20260504172540 57 0 0.0 3.0 0.00 0.00 0.00 67 1025.7
20260504172040 57 360 0.0 2.0 0.00 0.00 0.00 67 1025.7
20260504171554 58 0 0.0 0.0 0.00 0.00 0.00 67 1025.8
20260504171041 58 0 0.0 0.0 0.00 0.00 0.00 67 1025.6
20260504170543 58 0 0.0 0.0 0.00 0.00 0.00 66 1025.6
20260504151042 60 360 0.0 3.0 0.00 0.00 0.00 62 1025.9
20260504150545 61 0 0.0 2.0 0.00 0.00 0.00 61 1025.9
20260504141042 61 360 0.0 3.0 0.00 0.00 0.00 58 1026.0
20260504140542 61 360 1.0 3.0 0.00 0.00 0.00 58 1026.1
20260504130543 62 0 0.0 2.0 0.00 0.00 0.00 57 1026.4
20260504110544 64 360 4.0 10.0 0.00 0.00 0.00 52 1025.6
20260504100542 64 360 3.0 9.0 0.00 0.00 0.00 51 1025.4
20260504100109 64 360 1.0 6.0 0.00 0.00 0.00 51 1025.4
20260504081552 65 360 2.0 6.0 0.00 0.00 0.00 49 1024.7
20260504081042 65 360 2.0 6.0 0.00 0.00 0.00 49 1024.7
20260504080542 65 360 2.0 10.0 0.00 0.00 0.00 49 1024.7
20260504050542 66 360 4.0 10.0 0.00 0.00 0.00 49 1024.4
20260504045548 66 360 2.0 9.0 0.00 0.00 0.00 50 1024.5
20260504045041 66 360 4.0 11.0 0.00 0.00 0.00 51 1024.5
20260504044547 66 360 3.0 11.0 0.00 0.00 0.00 50 1024.6
20260504044043 66 360 3.0 10.0 0.00 0.00 0.00 50 1024.6
20260504044035 66 360 3.0 9.0 0.00 0.00 0.00 50 1024.5
20260504043101 65 360 3.0 10.0 0.00 0.00 0.00 50 1024.5
20260504042543 66 360 5.0 10.0 0.00 0.00 0.00 49 1024.6
20260504042044 66 360 3.0 9.0 0.00 0.00 0.00 49 1024.6
20260504041556 66 360 3.0 9.0 0.00 0.00 0.00 50 1024.6
20260504041042 66 360 3.0 9.0 0.00 0.00 0.00 49 1024.7
20260504040542 66 360 3.0 9.0 0.00 0.00 0.00 50 1024.7
20260504035542 66 360 3.0 8.0 0.00 0.00 0.00 50 1025.0
20260504035046 65 360 2.0 8.0 0.00 0.00 0.00 51 1025.0
20260504034558 65 360 3.0 10.0 0.00 0.00 0.00 52 1025.2
20260504034041 64 360 3.0 10.0 0.00 0.00 0.00 53 1025.2
20260504033543 64 360 4.0 12.0 0.00 0.00 0.00 54 1025.3
20260504033053 64 360 3.0 12.0 0.00 0.00 0.00 55 1025.4
20260504032542 64 360 6.0 10.0 0.00 0.00 0.00 54 1025.5
20260504032045 64 360 4.0 10.0 0.00 0.00 0.00 54 1025.5
20260504031557 64 360 5.0 10.0 0.00 0.00 0.00 55 1025.5
20260504031043 64 360 3.0 12.0 0.00 0.00 0.00 56 1025.6
20260504030541 63 360 6.0 12.0 0.00 0.00 0.00 56 1025.7
20260504030054 64 360 3.0 11.0 0.00 0.00 0.00 57 1025.8
20260504025541 64 360 2.0 11.0 0.00 0.00 0.00 57 1025.8
20260504025044 64 360 5.0 10.0 0.00 0.00 0.00 57 1025.9
20260504024550 64 360 3.0 11.0 0.00 0.00 0.00 57 1025.9
20260504024042 64 360 3.0 11.0 0.00 0.00 0.00 57 1025.9
20260504023543 63 360 3.0 8.0 0.00 0.00 0.00 59 1026.0
20260504023052 62 360 3.0 8.0 0.00 0.00 0.00 60 1026.1
20260504022542 63 360 3.0 9.0 0.00 0.00 0.00 63 1026.2
20260504022045 63 360 3.0 9.0 0.00 0.00 0.00 61 1026.2
20260504021552 63 360 4.0 10.0 0.00 0.00 0.00 62 1026.2
20260504021041 63 360 4.0 10.0 0.00 0.00 0.00 63 1026.3
20260504020541 63 360 3.0 9.0 0.00 0.00 0.00 64 1026.1
20260504015543 63 360 3.0 6.0 0.00 0.00 0.00 65 1026.4
20260504015042 63 360 2.0 8.0 0.00 0.00 0.00 66 1026.3
20260504014552 63 360 2.0 9.0 0.00 0.00 0.00 66 1026.4
20260504014042 63 360 4.0 9.0 0.00 0.00 0.00 65 1026.4
20260504013542 63 360 3.0 9.0 0.00 0.00 0.00 66 1026.5
20260504013049 63 360 3.0 12.0 0.00 0.00 0.00 67 1026.4
20260504012545 62 360 4.0 12.0 0.00 0.00 0.00 68 1026.4
20260504012041 62 360 3.0 9.0 0.00 0.00 0.00 69 1026.7
20260504011550 61 360 3.0 8.0 0.00 0.00 0.00 70 1026.7
20260504011042 60 360 3.0 8.0 0.00 0.00 0.00 71 1026.8
20260504010542 60 360 3.0 10.0 0.00 0.00 0.00 71 1026.8
20260504010050 60 360 4.0 10.0 0.00 0.00 0.00 71 1026.9
20260504005542 60 360 3.0 6.0 0.00 0.00 0.00 72 1026.8
20260504005042 60 360 3.0 5.0 0.00 0.00 0.00 72 1026.9
20260504004553 60 360 2.0 5.0 0.00 0.00 0.00 74 1026.7
20260504004042 59 360 2.0 5.0 0.00 0.00 0.00 75 1026.7
20260504003541 59 360 2.0 5.0 0.00 0.00 0.00 76 1026.6
20260504003050 58 360 2.0 5.0 0.00 0.00 0.00 77 1026.6
20260504002543 57 360 2.0 5.0 0.00 0.00 0.00 78 1026.4
20260504002042 57 360 1.0 5.0 0.00 0.00 0.00 79 1026.4
20260504001548 56 360 1.0 5.0 0.00 0.00 0.00 79 1026.4
20260504001042 56 360 2.0 5.0 0.00 0.00 0.00 79 1026.3
20260504000544 56 360 1.0 5.0 0.00 0.00 0.00 79 1026.3
20260504000048 55 360 2.0 5.0 0.00 0.00 0.00 79 1026.2
20260503235543 55 360 2.0 5.0 0.00 0.00 0.00 79 1026.3
20260503235042 55 360 2.0 5.0 0.00 0.00 0.00 79 1026.1
20260503234551 54 360 2.0 8.0 0.00 0.00 0.00 79 1026.1
20260503234044 54 360 2.0 8.0 0.00 0.00 0.00 80 1026.0
20260503233545 54 360 2.0 8.0 0.00 0.00 0.00 80 1026.0
20260503233048 53 360 2.0 5.0 0.00 0.00 0.00 80 1025.8
20260503232541 53 360 2.0 4.0 0.00 0.00 0.00 80 1025.8
20260503232041 52 360 1.0 4.0 0.00 0.00 0.00 80 1025.8
20260503231547 52 360 2.0 4.0 0.00 0.00 0.00 80 1025.8
20260503231042 52 360 1.0 4.0 0.00 0.00 0.00 80 1025.8
20260503230542 51 360 1.0 4.0 0.00 0.00 0.00 80 1025.6
20260503225541 51 360 2.0 5.0 0.00 0.00 0.00 79 1025.5
20260503225041 51 360 2.0 6.0 0.00 0.00 0.00 80 1025.4
20260503224547 51 360 2.0 6.0 0.00 0.00 0.00 80 1025.3
20260503224042 51 360 1.0 5.0 0.00 0.00 0.00 80 1025.2
20260503223542 51 0 0.0 4.0 0.00 0.00 0.00 80 1025.2
20260503223053 50 0 1.0 4.0 0.00 0.00 0.00 80 1025.0
20260503222542 50 360 2.0 4.0 0.00 0.00 0.00 80 1025.0
20260503222042 50 360 1.0 3.0 0.00 0.00 0.00 80 1024.8
20260503221550 50 360 1.0 3.0 0.00 0.00 0.00 80 1024.8
20260503221042 49 360 1.0 3.0 0.00 0.00 0.00 80 1024.8
20260503220543 49 360 1.0 4.0 0.00 0.00 0.00 80 1024.7
20260503220053 49 360 1.0 4.0 0.00 0.00 0.00 80 1024.7
20260503215541 49 360 1.0 3.0 0.00 0.00 0.00 79 1024.7
20260503215042 49 360 1.0 4.0 0.00 0.00 0.00 79 1024.6